This is the latest recevied weather packets stored in our database for station/object OH2TI. If no packets are shown the sender has not sent any weather packets the latest 10 day(s).
| Time | Temp. | Humidity | Pressure | Rain* | Wind** | Luminosity | Snow |
|---|---|---|---|---|---|---|---|
| 1777285433 | 8.33° C | 32% | 1009.9 hPa | - | - | - | - |
| 1777285111 | 7.78° C | 31% | 1009.9 hPa | - | - | - | - |
| 1777284261 | 7.78° C | 32% | 1009.9 hPa | - | - | - | - |
| 1777283453 | 7.78° C | 31% | 1009.9 hPa | - | - | - | - |
| 1777283051 | 8.33° C | 30% | 1009.9 hPa | - | - | - | - |
| 1777282636 | 7.78° C | 31% | 1010 hPa | - | - | - | - |
| 1777281971 | 7.78° C | 32% | 1009.8 hPa | - | - | - | - |
| 1777281411 | 7.78° C | 32% | 1009.9 hPa | - | - | - | - |
| 1777280528 | 7.78° C | 31% | 1009.7 hPa | - | - | - | - |
| 1777279774 | 7.22° C | 32% | 1010 hPa | - | - | - | - |
| 1777279251 | 7.78° C | 34% | 1010 hPa | - | - | - | - |
| 1777278816 | 7.22° C | 35% | 1009.8 hPa | - | - | - | - |
| 1777278113 | 7.22° C | 35% | 1009.8 hPa | - | - | - | - |
| 1777277486 | 6.67° C | 35% | 1009.8 hPa | - | - | - | - |
| 1777277034 | 6.67° C | 35% | 1009.6 hPa | - | - | - | - |
| 1777276591 | 7.22° C | 35% | 1009.8 hPa | - | - | - | - |
| 1777275786 | 6.67° C | 37% | 1009.8 hPa | - | - | - | - |
| 1777275394 | 6.67° C | 38% | 1009.7 hPa | - | - | - | - |
| 1777275036 | 6.67° C | 39% | 1009.8 hPa | - | - | - | - |
| 1777274661 | 6.67° C | 40% | 1009.9 hPa | - | - | - | - |
| 1777273961 | 6.11° C | 42% | 1009.7 hPa | - | - | - | - |
| 1777273236 | 5.56° C | 45% | 1009.8 hPa | - | - | - | - |
| 1777272591 | 5.56° C | 47% | 1009.9 hPa | - | - | - | - |
| 1777272176 | 5° C | 46% | 1009.7 hPa | - | - | - | - |
| 1777271591 | 4.44° C | 48% | 1009.7 hPa | - | - | - | - |
* Rain since midnight (hover to see other rain measurements)
** Current wind speed in m/s (hover to see current wind gust speed)